Temp
-14 -13 -13 -13 -13 -13 -13 -12 -12 -12 -12 -12 -11 -11 -11 -10 -10 -10 -10 -10 -10 -10 -10 -10 -10 -10 -10 -10 -10 -10 -10 -10 -10 -10 -11 -11 -11 -11 -11 -11 -11 -11 -11
-14 -13 -13 -13 -13 -13 -13 -12 -12 -12 -12 -12 -12 -12 -11 -11 -11 -10 -10 -10 -10 -10 -10 -10 -10 -10 -10 -10 -10 -10 -10 -10 -11 -11 -11 -11 -11 -11 -11 -12 -12 -11 -11
-14 -14 -14 -13 -13 -13 -13 -13 -12 -12 -12 -12 -12 -12 -12 -12 -11 -11 -11 -11 -10 -10 -10 -10 -10 -10 -10 -10 -10 -11 -11 -11 -11 -11 -11 -11 -11 -12 -12 -12 -12 -12 -12
-15 -15 -14 -15 -14 -14 -13 -13 -13 -12 -12 -12 -12 -13 -13 -13 -12 -12 -11 -11 -11 -11 -11 -11 -11 -10 -10 -11 -11 -11 -11 -11 -12 -12 -12 -12 -12 -12 -12 -12 -12 -12 -12
-15 -15 -15 -15 -15 -14 -14 -13 -13 -13 -13 -12 -13 -13 -13 -13 -12 -12 -12 -11 -11 -11 -11 -11 -11 -11 -11 -11 -11 -11 -11 -12 -12 -12 -12 -12 -12 -12 -12 -12 -12 -12 -13
-15 -15 -14 -15 -15 -14 -14 -14 -14 -14 -14 -13 -13 -13 -13 -13 -12 -12 -12 -12 -12 -12 -12 -12 -12 -12 -11 -12 -12 -12 -12 -12 -12 -12 -12 -12 -12 -12 -12 -12 -12 -12 -13
-15 -15 -14 -14 -15 -15 -15 -14 -14 -14 -14 -14 -14 -14 -13 -13 -13 -13 -12 -12 -13 -13 -12 -12 -12 -12 -12 -12 -12 -12 -13 -13 -12 -13 -12 -13 -13 -12 -12 -12 -12 -13 -13
-15 -14 -14 -15 -14 -14 -15 -15 -14 -14 -14 -14 -14 -14 -14 -13 -13 -13 -12 -12 -12 -12 -12 -12 -12 -12 -12 -12 -12 -13 -13 -13 -13 -13 -13 -13 -13 -12 -12 -12 -13 -13 -13
-15 -15 -15 -15 -14 -14 -14 -15 -14 -14 -14 -14 -14 -14 -14 -14 -13 -13 -13 -13 -13 -13 -13 -12 -12 -12 -13 -13 -13 -13 -13 -13 -13 -13 -13 -13 -13 -13 -13 -13 -13 -13 -14
-15 -15 -15 -15 -15 -15 -15 -15 -14 -14 -14 -14 -14 -14 -14 -14 -14 -14 -14 -14 -13 -13 -13 -12 -13 -13 -13 -13 -13 -13 -13 -13 -13 -14 -13 -13 -13 -13 -13 -14 -14 -14 -14
-17 -16 -16 -16 -16 -15 -15 -14 -14 -14 -14 -14 -14 -14 -14 -14 -14 -14 -14 -14 -13 -13 -13 -13 -13 -13 -13 -13 -13 -13 -13 -13 -14 -13 -13 -13 -13 -13 -14 -14 -14 -14 -15
-17 -16 -16 -16 -16 -15 -15 -15 -15 -15 -15 -14 -14 -14 -14 -14 -14 -14 -14 -14 -14 -14 -14 -14 -13 -14 -14 -14 -14 -14 -14 -14 -14 -14 -13 -14 -14 -14 -14 -15 -15 -15 -15
-17 -16 -16 -16 -16 -16 -16 -15 -15 -15 -15 -14 -14 -15 -15 -15 -15 -15 -15 -15 -14 -14 -14 -14 -14 -14 -14 -14 -14 -14 -14 -14 -14 -14 -14 -14 -14 -15 -15 -15 -15 -15 -16
-17 -17 -16 -16 -16 -16 -16 -16 -16 -16 -16 -16 -16 -16 -16 -16 -16 -16 -15 -15 -15 -15 -15 -15 -15 -14 -14 -15 -14 -15 -14 -14 -14 -14 -14 -15 -15 -15 -15 -15 -16 -16 -16
-17 -17 -17 -17 -17 -17 -17 -17 -17 -17 -17 -17 -18 -18 -18 -17 -17 -16 -16 -16 -15 -16 -16 -15 -15 -15 -15 -15 -15 -15 -15 -15 -15 -15 -15 -15 -15 -16 -16 -16 -16 -17 -17
-17 -17 -17 -17 -17 -17 -17 -17 -17 -17 -17 -17 -17 -18 -17 -17 -17 -17 -17 -17 -16 -16 -16 -16 -15 -16 -16 -16 -16 -16 -16 -16 -16 -16 -16 -16 -16 -16 -17 -17 -17 -17 -17
-17 -17 -17 -17 -17 -18 -18 -18 -18 -18 -18 -18 -18 -18 -18 -18 -18 -18 -17 -17 -17 -17 -17 -17 -17 -16 -16 -16 -16 -17 -17 -17 -16 -16 -16 -17 -17 -17 -17 -17 -17 -17 -17
-17 -17 -17 -17 -17 -18 -18 -18 -18 -19 -19 -19 -18 -18 -18 -18 -18 -18 -18 -18 -18 -18 -17 -18 -18 -18 -17 -17 -18 -17 -17 -17 -17 -17 -17 -17 -17 -17 -17 -17 -17 -18 -18
-17 -17 -17 -17 -17 -18 -18 -18 -18 -19 -19 -19 -19 -19 -19 -19 -19 -18 -18 -18 -18 -18 -18 -18 -18 -18 -18 -18 -17 -17 -17 -17 -17 -17 -17 -18 -18 -18 -18 -18 -18 -18 -18
-18 -18 -18 -17 -18 -18 -18 -19 -19 -19 -19 -19 -19 -19 -19 -19 -19 -20 -20 -19 -19 -19 -19 -18 -18 -19 -18 -18 -18 -18 -18 -18 -18 -18 -18 -18 -18 -18 -18 -18 -18 -18 -18
-19 -19 -18 -18 -18 -18 -19 -19 -19 -19 -19 -19 -19 -20 -20 -19 -20 -20 -19 -19 -19 -19 -19 -19 -19 -18 -18 -18 -18 -18 -18 -18 -18 -18 -18 -18 -18 -18 -18 -18 -19 -19 -18
-19 -19 -19 -19 -19 -19 -19 -19 -19 -19 -19 -19 -19 -19 -19 -19 -19 -19 -19 -19 -19 -19 -19 -19 -19 -19 -19 -19 -19 -18 -18 -18 -18 -18 -18 -18 -18 -18 -18 -18 -19 -19 -18
-19 -19 -19 -19 -19 -19 -19 -19 -19 -19 -19 -19 -19 -19 -19 -19 -19 -19 -19 -19 -19 -19 -19 -19 -19 -19 -19 -19 -19 -19 -19 -19 -19 -19 -19 -19 -18 -18 -18 -18 -19 -19 -19
-20 -20 -19 -19 -19 -19 -19 -19 -19 -19 -19 -19 -19 -20 -20 -19 -19 -19 -19 -19 -19 -19 -19 -19 -19 -19 -19 -19 -19 -19 -19 -19 -19 -19 -19 -19 -19 -18 -19 -19 -19 -19 -19
-20 -20 -20 -20 -19 -19 -19 -19 -19 -19 -19 -19 -19 -19 -20 -20 -19 -19 -19 -19 -19 -19 -19 -19 -19 -19 -19 -19 -19 -19 -19 -19 -19 -19 -19 -19 -19 -18 -19 -19 -19 -19 -19
-20 -20 -20 -20 -20 -20 -20 -19 -19 -19 -19 -19 -19 -19 -20 -20 -20 -19 -19 -19 -19 -19 -19 -19 -19 -19 -19 -19 -19 -19 -19 -19 -19 -19 -19 -19 -19 -19 -19 -19 -19 -19 -20
Height
5774 5781 5787 5793 5799 5803 5808 5812 5816 5820 5824 5826 5828 5831 5834 5836 5839 5840 5842 5844 5845 5845 5845 5845 5845 5844 5844 5843 5842 5840 5839 5837 5835 5833 5830 5828 5825 5822 5818 5813 5810 5806 5803
5767 5774 5780 5786 5792 5797 5801 5806 5810 5813 5816 5819 5822 5825 5828 5831 5833 5835 5836 5838 5838 5839 5839 5838 5838 5837 5837 5835 5834 5832 5831 5830 5827 5825 5822 5819 5817 5812 5809 5806 5802 5799 5795
5759 5766 5774 5780 5785 5790 5794 5799 5803 5807 5809 5812 5816 5817 5820 5824 5826 5828 5829 5830 5830 5831 5831 5831 5831 5830 5829 5828 5826 5824 5823 5821 5820 5816 5813 5809 5806 5804 5801 5798 5794 5790 5786
5752 5756 5765 5771 5777 5782 5787 5792 5795 5800 5802 5806 5809 5811 5813 5816 5818 5819 5821 5822 5822 5823 5823 5823 5822 5822 5821 5819 5818 5816 5814 5812 5811 5808 5805 5801 5798 5794 5793 5789 5785 5781 5777
5743 5749 5756 5762 5767 5774 5779 5783 5787 5792 5796 5798 5801 5803 5806 5808 5809 5810 5811 5812 5813 5813 5814 5814 5813 5813 5812 5810 5809 5807 5805 5803 5801 5798 5796 5793 5789 5786 5784 5783 5779 5774 5769
5736 5742 5747 5754 5760 5765 5770 5775 5779 5783 5786 5789 5791 5793 5795 5797 5799 5801 5802 5803 5804 5804 5804 5804 5804 5804 5803 5802 5800 5798 5797 5795 5792 5789 5786 5783 5781 5779 5776 5773 5769 5765 5762
5729 5733 5740 5747 5752 5756 5761 5764 5768 5771 5775 5778 5781 5783 5785 5787 5789 5790 5792 5793 5794 5795 5795 5795 5795 5794 5793 5792 5790 5788 5787 5785 5782 5779 5777 5775 5772 5769 5766 5762 5759 5756 5752
5722 5726 5730 5737 5741 5746 5751 5754 5757 5761 5765 5768 5771 5772 5774 5776 5778 5779 5781 5782 5783 5784 5784 5784 5784 5783 5782 5781 5779 5778 5776 5774 5772 5770 5767 5765 5762 5758 5756 5752 5749 5746 5743
5714 5717 5719 5725 5730 5737 5741 5744 5747 5750 5754 5756 5758 5760 5763 5765 5766 5768 5769 5771 5772 5773 5773 5772 5772 5771 5771 5769 5768 5766 5765 5763 5762 5760 5758 5756 5753 5750 5746 5742 5739 5737 5735
5705 5708 5712 5717 5721 5727 5730 5734 5737 5739 5742 5745 5747 5750 5752 5754 5756 5757 5758 5760 5760 5761 5761 5761 5760 5760 5759 5758 5757 5755 5754 5753 5752 5750 5748 5746 5743 5739 5737 5733 5730 5728 5726
5699 5700 5704 5708 5713 5717 5721 5723 5726 5728 5731 5733 5736 5739 5741 5743 5745 5747 5748 5749 5749 5749 5749 5749 5748 5748 5748 5747 5747 5745 5744 5743 5741 5740 5738 5735 5732 5729 5727 5725 5722 5720 5717
5695 5697 5699 5701 5703 5706 5708 5711 5715 5717 5720 5722 5725 5728 5729 5732 5734 5735 5736 5737 5738 5738 5738 5737 5737 5737 5737 5737 5736 5735 5734 5733 5732 5730 5727 5724 5722 5720 5717 5716 5714 5712 5708
5690 5691 5692 5694 5695 5696 5698 5699 5702 5706 5709 5711 5714 5715 5717 5719 5722 5723 5725 5725 5726 5726 5727 5727 5726 5726 5727 5726 5726 5725 5724 5722 5721 5719 5716 5714 5713 5710 5708 5707 5704 5703 5700
5684 5686 5687 5689 5690 5690 5691 5692 5693 5695 5697 5699 5702 5704 5706 5707 5709 5711 5712 5712 5713 5713 5714 5715 5715 5715 5716 5716 5714 5713 5712 5711 5710 5708 5706 5705 5704 5702 5700 5698 5696 5694 5692
5678 5679 5680 5682 5682 5683 5683 5684 5686 5687 5688 5689 5690 5692 5694 5695 5697 5698 5699 5700 5700 5701 5701 5703 5703 5703 5704 5704 5703 5702 5701 5700 5698 5697 5696 5695 5694 5694 5691 5690 5688 5686 5684
5671 5671 5673 5674 5674 5675 5675 5676 5677 5678 5680 5682 5683 5683 5684 5685 5685 5685 5686 5687 5688 5689 5689 5690 5690 5691 5691 5691 5691 5691 5689 5689 5687 5687 5687 5686 5686 5685 5683 5682 5679 5678 5676
5662 5663 5664 5664 5665 5666 5666 5667 5668 5669 5670 5671 5673 5674 5674 5675 5675 5675 5675 5675 5676 5677 5678 5678 5679 5679 5679 5679 5679 5679 5679 5679 5678 5678 5677 5677 5677 5676 5675 5673 5672 5670 5669
5654 5655 5655 5656 5657 5657 5658 5659 5660 5661 5662 5663 5664 5665 5665 5664 5664 5663 5663 5664 5664 5665 5666 5667 5668 5667 5667 5667 5669 5669 5669 5669 5669 5669 5669 5669 5668 5668 5667 5666 5664 5663 5661
5645 5647 5647 5648 5649 5650 5650 5650 5651 5652 5652 5653 5654 5654 5654 5654 5654 5652 5653 5653 5653 5653 5653 5655 5656 5656 5657 5658 5659 5659 5660 5661 5661 5661 5661 5661 5661 5660 5659 5658 5657 5655 5653
5636 5637 5639 5640 5641 5642 5642 5642 5643 5644 5644 5644 5644 5644 5644 5644 5644 5644 5644 5645 5646 5645 5645 5645 5645 5647 5649 5649 5650 5651 5652 5653 5653 5653 5653 5654 5653 5653 5652 5651 5649 5647 5645
5627 5628 5630 5632 5633 5634 5635 5635 5636 5636 5637 5637 5637 5637 5637 5636 5637 5637 5637 5637 5637 5637 5637 5637 5638 5639 5641 5641 5642 5643 5644 5644 5645 5646 5646 5646 5645 5645 5644 5643 5641 5639 5637
5619 5621 5623 5625 5626 5626 5627 5627 5628 5628 5629 5630 5630 5630 5630 5630 5630 5629 5629 5629 5629 5629 5629 5629 5630 5631 5632 5633 5634 5635 5636 5637 5638 5638 5638 5638 5638 5637 5636 5634 5633 5631 5628
5612 5613 5615 5616 5618 5619 5619 5620 5621 5621 5621 5622 5622 5623 5623 5623 5623 5622 5622 5622 5623 5622 5622 5622 5623 5624 5625 5626 5628 5628 5629 5629 5629 5629 5630 5629 5629 5628 5627 5625 5624 5622 5619
5604 5605 5606 5608 5609 5610 5611 5612 5613 5614 5614 5615 5616 5616 5616 5617 5617 5616 5615 5615 5615 5615 5615 5615 5616 5617 5618 5619 5620 5620 5621 5621 5621 5622 5621 5621 5620 5619 5618 5617 5615 5612 5609
5596 5597 5598 5600 5601 5602 5603 5604 5605 5606 5607 5608 5609 5609 5609 5610 5609 5609 5608 5608 5608 5608 5609 5609 5609 5610 5610 5611 5611 5612 5612 5612 5613 5613 5613 5612 5611 5610 5609 5607 5605 5602 5599
5589 5590 5591 5592 5593 5594 5595 5596 5597 5598 5599 5600 5600 5601 5602 5602 5602 5601 5601 5601 5601 5600 5601 5601 5602 5602 5602 5602 5602 5603 5603 5603 5604 5604 5603 5602 5602 5600 5599 5597 5595 5591 5588
Wind_Speed
60 55 54 51 48 46 44 41 39 39 40 40 41 41 40 39 38 37 37 37 35 35 35 35 35 35 35 35 36 37 38 39 40 40 42 44 42 46 47 45 42 43 45
62 59 55 53 49 48 47 45 43 42 43 43 43 41 41 41 39 39 39 38 39 38 38 39 38 38 38 38 39 40 42 42 42 45 46 47 46 49 44 40 41 44 46
61 61 56 52 50 49 48 47 45 42 45 44 45 44 39 41 42 41 41 40 40 41 42 42 42 41 41 42 43 44 44 43 46 47 48 51 53 48 44 38 41 44 46
57 59 55 55 51 51 49 49 47 48 42 42 41 42 41 43 41 41 42 43 44 45 45 45 44 44 45 46 47 48 47 48 49 48 49 53 51 45 41 39 43 45 46
59 57 55 52 55 51 49 49 48 46 47 48 45 45 45 45 46 46 45 46 47 47 47 47 47 48 48 50 51 51 49 49 51 50 52 48 46 41 41 42 45 46 45
59 52 54 51 51 52 55 53 50 49 51 50 50 50 51 51 50 50 50 50 51 50 50 51 51 53 54 53 53 52 51 51 50 52 49 46 42 41 44 46 45 45 43
60 62 55 54 50 49 50 51 52 56 59 56 55 55 55 56 56 56 56 54 54 55 55 56 56 55 55 55 54 54 52 52 49 48 45 42 42 44 46 46 45 43 41
41 48 63 66 62 55 54 56 57 58 57 55 57 58 60 60 59 59 59 58 58 56 55 55 57 56 55 55 54 54 52 51 47 45 44 43 44 45 46 46 44 42 40
43 43 46 47 59 60 62 57 53 50 52 53 55 53 53 53 53 53 51 52 53 55 55 54 53 53 55 54 53 51 49 45 44 43 42 43 45 47 47 45 42 41 38
35 35 44 47 39 53 55 53 54 54 56 56 54 52 50 50 50 50 52 53 52 52 52 54 54 54 53 51 49 46 44 43 42 42 43 45 48 47 45 42 40 39 39
27 33 35 36 39 42 47 53 54 51 54 55 54 54 54 53 53 54 52 53 54 55 53 52 52 51 50 49 46 43 42 40 42 44 45 48 46 44 41 39 37 38 39
18 24 30 35 41 45 47 44 52 54 61 65 62 61 57 55 54 54 55 55 54 53 52 52 52 50 49 47 45 44 42 42 43 45 46 45 42 40 38 38 38 40 39
18 19 22 27 30 35 41 47 47 47 57 64 63 61 57 56 57 58 57 56 55 54 54 54 52 49 48 47 46 43 42 43 44 46 43 41 39 38 36 38 38 39 36
24 23 21 23 26 31 37 40 43 44 46 48 51 53 54 54 54 54 54 53 53 52 53 51 48 48 47 44 43 42 43 42 43 42 41 38 37 37 37 35 34 34 34
28 27 25 23 24 26 31 38 42 44 46 45 45 45 46 47 49 51 53 55 54 51 49 46 46 44 44 44 43 44 43 44 45 40 36 36 36 35 33 32 31 32 31
30 31 28 28 29 28 30 33 36 38 39 42 43 43 45 46 46 46 47 47 46 45 44 43 43 40 43 45 43 47 45 38 35 37 36 33 32 30 29 30 29 28 29
32 32 33 34 33 29 28 30 32 34 36 38 39 41 42 43 46 47 46 47 48 45 42 41 41 41 42 43 46 42 37 39 36 34 30 29 27 29 28 28 28 29 29
34 34 36 35 36 34 29 29 30 31 33 35 38 41 45 45 42 43 45 45 43 44 47 41 40 41 45 49 37 35 37 35 29 29 28 28 27 27 28 27 28 29 30
37 38 37 35 35 31 30 33 35 34 34 36 38 38 40 39 39 35 36 38 40 40 41 46 48 45 35 35 35 33 29 28 29 28 27 27 26 26 27 28 29 29 31
40 41 39 35 32 33 29 29 27 28 27 26 27 29 29 32 33 33 27 29 29 32 35 29 29 29 32 29 28 27 29 29 28 27 26 27 26 26 27 28 29 30 31
30 30 33 33 28 25 25 26 27 29 26 26 25 23 23 23 27 32 32 33 33 32 28 26 28 26 28 28 28 28 29 28 27 27 27 27 27 28 28 30 31 32 32
28 28 27 29 29 29 30 30 30 29 29 27 25 24 25 25 27 25 26 30 28 25 25 26 26 27 27 27 27 27 27 27 27 27 28 29 29 30 31 31 33 33 33
32 32 32 32 32 33 34 34 31 28 27 26 26 26 28 30 26 25 27 30 29 27 26 24 23 23 24 24 26 26 27 27 28 29 30 30 29 30 32 32 34 35 35
31 31 31 30 30 31 33 34 32 29 29 29 28 29 28 26 26 25 23 25 27 29 27 25 24 24 25 26 27 28 29 29 29 31 31 30 30 30 32 33 35 35 36
27 27 28 28 29 29 29 29 29 29 29 29 29 28 28 29 27 25 25 25 29 27 27 27 27 27 28 28 30 30 31 31 31 32 32 30 29 29 31 34 36 37 38
27 26 27 27 27 27 28 29 29 28 28 28 30 34 32 30 30 28 27 27 26 25 30 31 27 28 30 31 32 32 31 32 33 33 33 31 30 31 33 35 37 38 39
Wind_Direction
223 227 229 230 232 234 238 239 238 240 242 241 240 243 246 249 253 256 260 267 272 274 277 280 283 286 288 291 294 296 298 298 298 302 304 304 303 307 307 307 305 305 307
228 228 230 230 231 233 236 240 240 240 242 243 244 246 251 254 257 260 263 267 271 274 278 281 283 286 289 292 294 296 298 298 299 303 300 300 302 306 306 304 302 303 305
235 233 231 234 234 235 236 239 241 244 245 248 250 251 249 258 260 263 266 269 272 276 279 281 283 286 289 291 293 294 295 296 300 298 298 300 303 303 302 302 302 302 301
236 238 235 232 234 237 239 241 244 244 245 250 251 255 259 258 263 265 268 271 274 275 278 280 284 286 289 291 291 293 294 294 300 296 298 301 302 301 300 302 302 300 299
234 237 237 235 234 233 241 241 244 247 248 252 254 258 260 261 262 264 267 270 273 275 278 281 284 286 287 289 290 290 290 292 295 295 297 297 297 296 297 298 299 297 297
233 236 238 238 239 238 238 243 246 247 250 250 254 256 259 260 262 264 266 269 271 275 277 279 281 283 283 284 286 287 289 290 292 294 296 295 294 293 296 299 297 296 295
231 231 232 238 239 240 244 244 247 247 248 249 252 254 257 259 262 265 267 266 269 272 273 276 276 278 280 282 283 285 288 291 291 293 292 291 292 295 295 295 295 293 292
242 239 240 239 240 242 246 252 253 254 251 251 252 256 258 260 263 263 264 265 268 270 271 271 273 276 278 280 282 286 288 288 288 288 288 289 293 295 294 293 292 291 290
245 244 245 243 241 244 247 246 245 249 255 257 256 255 257 258 257 259 261 262 264 265 268 271 273 275 279 282 285 286 285 284 284 284 286 289 293 295 293 291 290 289 289
235 242 248 244 239 239 241 245 251 253 253 254 254 255 255 260 259 260 262 264 266 268 270 272 275 278 281 282 283 284 283 280 280 282 286 290 293 291 290 288 289 289 291
231 229 231 233 236 241 245 246 248 251 253 254 256 259 258 259 260 264 264 267 268 269 272 275 277 279 280 280 280 280 280 278 279 283 287 290 289 289 286 287 289 290 292
243 239 235 236 233 234 236 245 249 252 253 254 252 255 253 256 259 261 265 268 270 272 274 274 276 278 279 279 280 281 279 279 280 283 286 287 287 285 287 288 290 290 291
253 252 248 245 246 248 245 243 243 248 255 253 253 251 250 254 259 264 267 268 270 272 274 275 276 279 277 277 279 277 278 278 281 284 285 284 284 284 285 288 290 292 292
262 259 259 256 256 254 253 252 255 257 254 251 250 253 256 258 258 263 267 268 270 271 273 274 276 276 277 275 274 275 276 278 282 284 282 282 283 284 286 287 289 290 293
271 267 270 273 270 263 257 254 254 255 259 260 262 263 266 267 268 269 271 272 272 273 274 275 274 272 271 272 271 271 273 278 281 278 280 280 282 283 284 286 289 291 294
273 270 270 273 278 273 262 259 257 257 257 260 263 267 269 270 272 272 271 270 269 268 269 268 268 265 267 267 266 271 277 275 278 278 277 279 278 279 282 285 287 291 294
268 270 264 269 280 279 267 263 260 259 260 263 267 268 270 272 273 272 271 270 268 270 268 268 264 263 262 264 268 273 275 277 274 274 271 271 273 277 279 283 285 288 292
261 261 263 266 277 272 265 263 264 263 262 262 263 266 269 270 274 272 271 272 273 271 269 261 262 267 265 272 270 272 272 269 266 267 267 271 272 276 279 282 285 290 293
251 256 257 269 273 263 266 269 265 266 266 264 263 265 269 267 274 273 269 270 272 269 265 262 266 268 268 268 267 265 263 261 262 264 266 268 271 275 278 282 284 289 293
253 257 263 266 262 262 267 268 255 258 266 267 264 267 271 268 266 265 268 266 269 277 266 266 269 270 264 261 261 260 260 260 261 262 264 267 272 275 278 281 286 291 294
253 254 253 256 254 254 261 266 264 260 264 267 265 270 274 275 271 265 264 267 269 272 268 266 263 262 261 261 261 260 259 259 260 262 264 269 274 277 280 284 289 293 295
253 252 252 252 252 252 258 262 265 262 260 264 270 272 272 270 281 282 279 272 271 274 268 266 263 262 264 261 260 259 259 261 263 265 267 269 273 276 281 286 290 293 295
254 255 255 255 253 253 255 258 261 263 262 263 264 268 270 275 278 283 279 277 278 268 264 263 263 262 258 259 261 263 265 267 268 268 268 269 273 279 283 288 290 293 294
253 254 254 253 254 254 254 256 258 261 261 263 265 267 266 269 274 278 279 283 281 272 265 261 260 259 259 260 262 264 267 267 270 271 270 272 276 281 285 288 289 291 293
254 252 252 252 252 252 251 252 254 257 259 261 265 268 268 272 272 274 274 275 269 267 267 265 263 262 263 264 265 266 267 268 269 272 271 273 277 281 286 289 291 293 294
255 254 253 252 253 253 249 252 255 255 257 258 254 256 264 267 270 275 274 274 276 277 269 261 263 269 269 268 269 269 268 269 272 270 270 273 277 281 285 289 292 293 294